Regional Weather Roundup
Issued by NWS Midland/Odessa, TX

Skip options and go directly to product.
Home | Oldest Version | Previous Version | Current Version | All | Text Only | Save Text | Print | Product List | Glossary On

Skip product version selection by date and time.   
638
ASUS44 KMAF 010010
RWRMAF
MIDLAND AREA WEATHER ROUNDUP
NATIONAL WEATHER SERVICE MIDLAND TX
700 PM CDT TUE SEP 30 2014

...IN SOUTHWEST TEXAS AND SOUTHEAST NEW MEXICO...

CITY           SKY/WX    TMP DP  RH WIND       PRES   REMARKS
ALPINE         PTCLDY    82  57  42 SW7       29.95F
ANDREWS        FAIR      85  52  31 SW9       29.79S
ARTESIA        NOT AVBL
BIG SPRING     CLEAR     87  56  34 S8        29.77S
CARLSBAD       CLEAR     84  48  28 SW12      29.78S
DRYDEN           N/A     88  63  43 SE14      29.77R
FORT STOCKTON  CLEAR     84  59  42 S6        29.79S
GUAD PASS      CLEAR     74  46  36 SW23G35   29.95R
HOBBS          PTCLDY    81  55  41 SW9       29.82S
MARFA          CLEAR     82  50  32 SW10      29.95S
MIDLAND AIRPK  CLEAR     89  53  29 CALM      29.77S
MIDLAND INTL   CLEAR     89  56  32 SW10      29.77S
ODESSA         CLEAR     86  55  34 SW9       29.78F
PECOS          CLEAR     87  57  36 SE7       29.75S
PRESIDIO       FAIR      90  56  31 CALM      29.77F
SEMINOLE       CLEAR     83  49  30 SW12      29.81R
SNYDER         CLEAR     84  63  48 S8        29.76S
WINK           CLEAR     88  58  36 S7        29.75S
$$
...OTHER STATIONS IN TEXAS...

CITY           SKY/WX    TMP DP  RH WIND       PRES   REMARKS
ABILENE        CLEAR     88  56  33 S12       29.75F
AMARILLO       CLEAR     78  41  26 SW10      29.78S
AUSTIN         PTCLDY    86  67  52 S8        29.76S
BROWNSVILLE    PTCLDY    83  79  88 SE9       29.75S
CORPUS CHRISTI PTCLDY    82  75  79 E8        29.76R
DALLAS FTW     PTCLDY    88  63  43 S13       29.75R
DEL RIO        CLEAR     87  66  49 SE10      29.73S
EL PASO        MOSUNNY   85  48  27 NW14      29.83F
HOUSTON INT    MOCLDY    82  72  71 CALM      29.79R
LUBBOCK        PTCLDY    82  49  31 SW13      29.78R
SAN ANGELO     CLEAR     89  58  34 S8        29.75S
SAN ANTONIO    PTCLDY    87  63  44 SE9       29.77S
WACO           CLEAR     86  65  49 S10       29.76S
WICHITA FALLS  NOT AVBL
$$
...OTHER LOCATIONS IN NEW MEXICO...

CITY           SKY/WX    TMP DP  RH WIND       PRES   REMARKS
ALAMAGORDO     PTCLDY    79  43  27 SW9       29.87S
ALBUQUERQUE    PTCLDY    75  30  19 W7        29.91S
CANNON AFB     CLEAR     77  42  28 SW14      29.83S
CLOVIS           N/A     75  39  27 SW13      29.85R
HOLLOMAN AFB   PTCLDY    81  38  21 W7        29.85R
ROSWELL        CLEAR     82  52  35 E3        29.79S
RUIDOSO        CLEAR     66  32  28 SW13      30.03R
SANTA FE       CLEAR     68  28  22 W20G25    29.94S
TRUTH OR CONSE SUNNY     80  31  16 S12       29.86F
TUCUMCARI      CLEAR     79  34  19 SW14      29.77F
$$

USA.gov is the U.S. government's official web portal to all federal, state and local government web resources and services.